Regional Weather Roundup
Issued by NWS

Home | Current Version | Previous Version | Text Only | Print | Product List | Glossary On
Versions: 1 2 3 4 5 6 7 8 9 10 11 12 13 14 15 16 17 18 19 20 21 22 23 24 25 26 27 28 29 30 31 32 33 34 35 36 37 38 39 40 41 42 43 44 45 46 47 48 49 50
000
ASUS44 KJAN 290420
RWRMS

MISSISSIPPI HOURLY WEATHER ROUNDUP
NATIONAL WEATHER SERVICE JACKSON MS
1100 PM CDT WED SEP 28 2016

NOTE: "FAIR: INDICATES FEW OR NO CLOUDS BELOW 12,000 FEET WITH NO
SIGNIFICANT WEATHER AND/OR OBSTRUCTIONS TO VISIBILITY.

MSZ001>002-007>008-010>013-018>021-025>028-034>036-290500-
NORTHWEST MISSISSIPPI

CITY           SKY/WX    TMP DP  RH WIND       PRES   REMARKS
BATESVILLE     FAIR      68  47  46 NE12G20   30.06R
CLARKSDALE       N/A     70  50  49 N16G26    30.05R
CLEVELAND      MOCLDY    72  51  46 N12G20    30.02R
GREENWOOD      PTCLDY    65  57  75 CALM      29.99R
GREENVILLE     CLOUDY    76  55  48 N13       30.01R
OXFORD         FAIR      64  45  48 NE10G20   30.07R
TUNICA         PTCLDY    64  46  52 N14G21    30.08R
WINONA         FAIR      73  54  51 N7        30.00R
$$

MSZ003>006-009-014>017-022>024-029>033-037>039-290500-
NORTHEAST MISSISSIPPI

CITY           SKY/WX    TMP DP  RH WIND       PRES   REMARKS
COLUMBUS AFB   CLEAR     70  54  57 NW7       29.97R
CORINTH          N/A     66  48  52 N9G17     30.04R
GOLDN TRIANGLE CLEAR     70  48  46 NW3       29.98R
STARKVILLE     FAIR      68  54  60 W3        29.99R
TUPELO         MOCLDY    71  50  47 N15       30.01R
$$

MSZ040-058-290500-
CENTRAL MISSISSIPPI

CITY           SKY/WX    TMP DP  RH WIND       PRES   REMARKS
JACKSON INTL   CLEAR     68  59  73 SW3       30.00R
JACKSON HAWKNS CLEAR     71  60  68 W7        30.01R
MADISON        FAIR      66  57  72 CALM      30.00S
MERIDIAN KEY   CLEAR     64  55  72 S3        29.99S
MERIDIAN NAS   CLEAR     68  47  46 W3        29.99S
VICKSBURG VKS  PTCLDY    63  61  94 CALM      30.00S
$$

MSZ059>079-290500-
SOUTH MISSISSIPPI

CITY           SKY/WX    TMP DP  RH WIND       PRES   REMARKS
BROOKHAVEN     FAIR     N/A N/A N/A CALM      30.03S
HATTIESBURG    CLEAR     70  67  90 W3        30.01R
LAUREL         FAIR      69  61  76 CALM      30.00S
MCCOMB         CLEAR     67  64  90 CALM      30.02S
NATCHEZ        CLEAR     66  61  82 CALM      30.02S
PINE BELT      CLEAR     66  61  82 CALM      30.02R
$$

MSZ080>082-290500-
COASTAL MISSISSIPPI

CITY           SKY/WX    TMP DP  RH WIND       PRES   REMARKS
BILOXI         CLEAR     78  71  80 CALM      29.99R
PASCAGOULA     CLEAR     70  70 100 CALM      29.99S
GULFPORT       CLEAR     74  70  87 CALM      29.99R
$$

LAZ007>009-015>016-023>026-290500-
NORTHEAST LOUISIANA

CITY           SKY/WX    TMP DP  RH WIND       PRES   REMARKS
BASTROP        FAIR      70  57  64 CALM      30.01S
TALLULAH/VBURG CLEAR     63  58  83 CALM      30.01R
$$



USA.gov is the U.S. government's official web portal to all federal, state and local government web resources and services.